Weather History for Cumberland, MD

Change the Weather History Date:

Sunday, April 22, 2012

  Actual Average (KMRB) Record (KMRB)
Temperature  
Mean Temperature 46 °F 54 °F  
Max Temperature 50 °F 66 °F 89 °F (1985)
Min Temperature 41 °F 43 °F 29 °F (1950)
Degree Days  
Heating Degree Days 19 11  
Month to date heating degree days 308  
Since 1 July heating degree days 4978  
Cooling Degree Days 0 0  
Month to date cooling degree days 0  
Year to date cooling degree days 1  
Growing Degree Days 0 (Base 50)    
Moisture  
Dew Point 42 °F    
Average Humidity 83    
Maximum Humidity 100    
Minimum Humidity 71    
Precipitation  
Precipitation 0.00 in 0.11 in 1.20 in (1972)
Month to date precipitation 2.43  
Year to date precipitation 10.73  
Sea Level Pressure  
Sea Level Pressure 29.77 in    
Wind  
Wind Speed 6 mph (North)    
Max Wind Speed 14 mph    
Max Gust Speed 21 mph    
Visibility 10 miles    
Events      
T = Trace of Precipitation, MM = Missing Value Source: NWS Daily Summary

Daily Weather History Graph

Daily Weather History Graph

Search for Another Location

Airport:

Trip Planner

Search our weather history database for the weather conditions in past years. The results will help you decide how hot, cold, wet, or windy it might be!

Date:

Astronomy

Apr. 22, 2012 Rise Set
Actual Time 6:26 AM EDT 8:00 PM EDT
Civil Twilight 5:58 AM EDT 8:29 PM EDT
Nautical Twilight 5:24 AM EDT 9:03 PM EDT
Astronomical Twilight 4:48 AM EDT 9:39 PM EDT
Moon 6:57 AM EDT (4/22) 9:35 PM EDT (4/22)
Length of Visible Light 14h 30m
Length of Day
13h 33m
New Moon, 2% of the Moon is Illuminated
Apr 22
New Moon
Apr 29
First Quarter
May 5
Full
May 12
Last Quarter
May 20
New

Hourly Weather History & Observations

Time (EDT) Temp. Windchill Dew Point Humidity Pressure Visibility Wind Dir Wind Speed Gust Speed Precip Events Conditions
12:20 AM 50.0 °F - 44.6 °F 82% 29.88 in 10.0 mi NNW 8.1 mph - N/A   Overcast
12:41 AM 50.0 °F - 44.6 °F 82% 29.88 in 10.0 mi Calm Calm - N/A   Overcast
1:03 AM 50.0 °F - 44.6 °F 82% 29.88 in 10.0 mi North 8.1 mph - N/A   Overcast
1:24 AM 50.0 °F - 44.6 °F 82% 29.87 in 10.0 mi NW 4.6 mph - N/A   Overcast
1:45 AM 50.0 °F - 44.6 °F 82% 29.87 in 10.0 mi Calm Calm - N/A   Overcast
2:07 AM 50.0 °F - 44.6 °F 82% 29.87 in 10.0 mi North 4.6 mph - N/A   Overcast
2:28 AM 50.0 °F - 44.6 °F 82% 29.86 in 10.0 mi Calm Calm - N/A   Overcast
2:49 AM 50.0 °F - 42.8 °F 76% 29.86 in 10.0 mi Calm Calm - N/A   Overcast
3:11 AM 48.2 °F - 42.8 °F 82% 29.86 in 10.0 mi NW 3.5 mph - N/A   Overcast
3:32 AM 48.2 °F - 42.8 °F 82% 29.85 in 10.0 mi NW 6.9 mph - N/A   Overcast
3:53 AM 48.2 °F - 42.8 °F 82% 29.86 in 10.0 mi NW 4.6 mph - N/A   Overcast
4:15 AM 48.2 °F - 42.8 °F 82% 29.85 in 10.0 mi NNW 4.6 mph - N/A   Overcast
4:36 AM 46.4 °F - 42.8 °F 87% 29.85 in 10.0 mi Calm Calm - N/A   Mostly Cloudy
4:57 AM 46.4 °F 44.3 °F 42.8 °F 87% 29.85 in 10.0 mi WNW 4.6 mph - N/A   Overcast
5:19 AM 46.4 °F 43.5 °F 42.8 °F 87% 29.85 in 10.0 mi NW 5.8 mph - N/A   Mostly Cloudy
5:40 AM 46.4 °F 45.2 °F 42.8 °F 87% 29.84 in 10.0 mi WNW 3.5 mph - N/A   Overcast
6:02 AM 46.4 °F 45.2 °F 41.0 °F 81% 29.84 in 10.0 mi NW 3.5 mph - N/A   Mostly Cloudy
6:23 AM 46.4 °F 44.3 °F 41.0 °F 81% 29.85 in 10.0 mi NNW 4.6 mph - N/A   Mostly Cloudy
6:44 AM 46.4 °F - 41.0 °F 81% 29.85 in 10.0 mi Calm Calm - N/A   Mostly Cloudy
7:05 AM 46.4 °F 45.2 °F 41.0 °F 81% 29.85 in 10.0 mi North 3.5 mph - N/A   Overcast
7:27 AM 46.4 °F - 42.8 °F 87% 29.85 in 10.0 mi Calm Calm - N/A   Overcast
8:09 AM 46.4 °F 43.5 °F 42.8 °F 87% 29.84 in 10.0 mi NNW 5.8 mph - N/A   Mostly Cloudy
8:31 AM 46.4 °F 43.5 °F 42.8 °F 87% 29.84 in 10.0 mi North 5.8 mph - N/A   Overcast
8:52 AM 48.2 °F - 42.8 °F 82% 29.84 in 10.0 mi North 5.8 mph - N/A   Mostly Cloudy
9:13 AM 48.2 °F - 42.8 °F 82% 29.83 in 10.0 mi North 5.8 mph - N/A   Overcast
9:35 AM 48.2 °F - 42.8 °F 82% 29.83 in 10.0 mi North 4.6 mph - N/A   Overcast
9:56 AM 48.2 °F - 42.8 °F 82% 29.83 in 10.0 mi North 5.8 mph - N/A   Overcast
10:17 AM 48.2 °F - 42.8 °F 82% 29.83 in 10.0 mi North 8.1 mph - N/A   Overcast
10:38 AM 48.2 °F - 42.8 °F 82% 29.83 in 10.0 mi NNE 4.6 mph - N/A   Overcast
11:00 AM 46.4 °F 41.9 °F 42.8 °F 87% 29.83 in 7.0 mi NNE 9.2 mph - N/A   Overcast
11:21 AM 46.4 °F 41.9 °F 42.8 °F 87% 29.83 in 10.0 mi North 9.2 mph - N/A   Overcast
11:42 AM 46.4 °F 42.4 °F 42.8 °F 87% 29.82 in 10.0 mi North 8.1 mph - N/A   Overcast
12:04 PM 48.2 °F - 42.8 °F 82% 29.82 in 10.0 mi North 5.8 mph - N/A   Overcast
12:25 PM 50.0 °F - 42.8 °F 76% 29.81 in 10.0 mi NNE 6.9 mph - N/A   Overcast
12:46 PM 50.0 °F - 42.8 °F 76% 29.79 in 10.0 mi NNW 10.4 mph - N/A   Mostly Cloudy
1:07 PM 50.0 °F - 41.0 °F 71% 29.78 in 10.0 mi North 10.4 mph 16.1 mph N/A   Mostly Cloudy
1:29 PM 50.0 °F - 41.0 °F 71% 29.78 in 10.0 mi NNE 8.1 mph - N/A   Overcast
1:50 PM 50.0 °F - 41.0 °F 71% 29.77 in 10.0 mi North 6.9 mph - N/A   Overcast
2:11 PM 50.0 °F - 42.8 °F 76% 29.77 in 10.0 mi NE 9.2 mph - N/A   Mostly Cloudy
2:33 PM 50.0 °F - 41.0 °F 71% 29.76 in 10.0 mi NNE 9.2 mph - N/A   Mostly Cloudy
2:54 PM 50.0 °F - 41.0 °F 71% 29.75 in 10.0 mi NNE 11.5 mph - N/A   Overcast
3:15 PM 50.0 °F - 41.0 °F 71% 29.74 in 10.0 mi NNE 9.2 mph - N/A   Mostly Cloudy
3:37 PM 50.0 °F - 41.0 °F 71% 29.73 in 10.0 mi North 9.2 mph - N/A   Overcast
3:58 PM 48.2 °F - 41.0 °F 76% 29.72 in 10.0 mi NNE 12.7 mph 16.1 mph N/A   Overcast
4:19 PM 48.2 °F - 41.0 °F 76% 29.71 in 10.0 mi North 10.4 mph - N/A   Mostly Cloudy
4:40 PM 48.2 °F - 41.0 °F 76% 29.70 in 10.0 mi North 9.2 mph - N/A   Scattered Clouds
5:02 PM 48.2 °F - 41.0 °F 76% 29.69 in 10.0 mi North 11.5 mph 20.7 mph N/A   Mostly Cloudy
5:23 PM 46.4 °F 41.5 °F 41.0 °F 81% 29.70 in 10.0 mi North 10.4 mph 16.1 mph N/A   Overcast
5:44 PM 46.4 °F 41.5 °F 41.0 °F 81% 29.69 in 10.0 mi North 10.4 mph 17.3 mph N/A   Mostly Cloudy
6:06 PM 46.4 °F 42.4 °F 41.0 °F 81% 29.69 in 10.0 mi North 8.1 mph - N/A   Mostly Cloudy
6:27 PM 46.4 °F 42.4 °F 41.0 °F 81% 29.69 in 10.0 mi North 8.1 mph - N/A   Scattered Clouds
6:48 PM 46.4 °F 41.1 °F 41.0 °F 81% 29.69 in 10.0 mi North 11.5 mph 19.6 mph N/A   Mostly Cloudy
7:09 PM 44.6 °F 38.4 °F 41.0 °F 87% 29.68 in 10.0 mi North 12.7 mph 20.7 mph N/A   Overcast
7:10 PM 44.6 °F 38.1 °F 41.0 °F 87% 29.68 in 10.0 mi North 13.8 mph 20.7 mph N/A   Overcast
7:31 PM 44.6 °F 39.7 °F 42.8 °F 93% 29.68 in 10.0 mi NNW 9.2 mph - N/A   Overcast
7:52 PM 44.6 °F 40.7 °F 42.8 °F 93% 29.67 in 10.0 mi North 6.9 mph - N/A   Overcast
8:13 PM 44.6 °F 42.2 °F 42.8 °F 93% 29.67 in 10.0 mi North 4.6 mph - N/A   Overcast
8:35 PM 44.6 °F 40.7 °F 41.0 °F 87% 29.67 in 10.0 mi North 6.9 mph - N/A   Overcast
8:56 PM 44.6 °F 40.7 °F 41.0 °F 87% 29.67 in 10.0 mi North 6.9 mph - N/A   Overcast
9:17 PM 42.8 °F 38.6 °F 42.8 °F 100% 29.67 in 10.0 mi North 6.9 mph - N/A   Overcast
9:39 PM 42.8 °F 39.3 °F 41.0 °F 93% 29.67 in 10.0 mi North 5.8 mph - N/A   Overcast
10:00 PM 42.8 °F 40.1 °F 41.0 °F 93% 29.66 in 10.0 mi North 4.6 mph - N/A   Overcast
10:21 PM 42.8 °F 39.3 °F 41.0 °F 93% 29.65 in 10.0 mi North 5.8 mph - N/A   Overcast
10:42 PM 42.8 °F 38.0 °F 41.0 °F 93% 29.64 in 10.0 mi North 8.1 mph 19.6 mph N/A   Overcast
11:04 PM 42.8 °F 37.0 °F 39.2 °F 87% 29.64 in 10.0 mi North 10.4 mph 17.3 mph N/A   Overcast
11:25 PM 42.8 °F 36.6 °F 37.4 °F 81% 29.62 in 10.0 mi North 11.5 mph - N/A   Overcast
11:47 PM 41.0 °F 36.4 °F 37.4 °F 87% 29.61 in 10.0 mi NNW 6.9 mph - N/A   Overcast